Location: Recife
(8.0585°S, 34.8848°W)
Time: 19:49:28
(UTC-03:00)

A-11 Canister half - Pass Details

Date: 21 April 2026
Orbit: 1523 x 1684 km, 47.3° (Epoch: 16 May)

Event Time Altitude Azimuth Distance (km) Brightness Sun altitude
Rises 16:49:35 0° 197° (SSW) 4,689 11.6 5.2°
Reaches altitude 10° 16:54:09 10° 178° (S) 3,721 10.9 4.1°
Maximum altitude 16:59:52 17° 139° (SE) 3,202 10.3 2.8°
Drops below altitude 10° 17:05:37 10° 101° (ESE) 3,780 10.4 1.4°
Sets 17:10:15 0° 83° (E) 4,794 11.0 0.2°
